• In Germany
  • List of Countries
  • For 7 days
  • Water Temperature
  • Satellite Maps
  • Weather Map
  • Weather Widgets
  • user-avatar
    Login

    Hourly Weather Innsbruck

    Today, 23 July, Sunday

    Time Temperature Precipitation Wind Pressure Humidity
    00:00 +10°C° 1.8 mm 1 mps 598 mmHg 94%
    01:00 +10°C° 1.8 mm 1 mps 598 mmHg 95%
    02:00 +10°C° 1.1 mm 1 mps 598 mmHg 95%
    03:00 +9°C° 1.1 mm 1 mps 598 mmHg 95%
    04:00 +9°C° 1.1 mm 1 mps 598 mmHg 94%
    05:00 +10°C° 0.1 mm 1 mps 599 mmHg 92%
    06:00 +11°C° 0.1 mm 1 mps 599 mmHg 89%
    07:00 +11°C° 0.1 mm 0 mps 600 mmHg 86%
    08:00 +13°C° 0.2 mm 1 mps 600 mmHg 81%
    09:00 +14°C° 0.2 mm 1 mps 600 mmHg 76%
    10:00 +15°C° 0.2 mm 1 mps 601 mmHg 71%
    11:00 +15°C° 0.3 mm 1 mps 601 mmHg 72%
    12:00 +15°C° 0.3 mm 1 mps 601 mmHg 74%
    13:00 +15°C° 0.3 mm 1 mps 601 mmHg 75%
    14:00 +14°C° 0.9 mm 1 mps 600 mmHg 79%
    15:00 +14°C° 0.9 mm 2 mps 600 mmHg 83%
    16:00 +13°C° 0.9 mm 2 mps 600 mmHg 87%
    17:00 +12°C° 0.7 mm 2 mps 599 mmHg 90%
    18:00 +12°C° 0.7 mm 1 mps 599 mmHg 92%
    19:00 +11°C° 0.7 mm 1 mps 599 mmHg 95%
    20:00 +11°C° 0.6 mm 1 mps 599 mmHg 95%
    21:00 +10°C° 0.6 mm 1 mps 598 mmHg 96%
    22:00 +10°C° 0.6 mm 1 mps 598 mmHg 97%
    23:00 +9°C° 0.4 mm 1 mps 598 mmHg 97%

    Tomorrow, 24 July, Monday

    Time Temperature Precipitation Wind Pressure Humidity
    00:00 +9°C° 0.4 mm 1 mps 597 mmHg 97%
    01:00 +9°C° 0.4 mm 1 mps 597 mmHg 97%
    02:00 +9°C° 0.9 mm 1 mps 596 mmHg 97%
    03:00 +8°C° 0.9 mm 0 mps 596 mmHg 97%
    04:00 +7°C° 0.9 mm 0 mps 595 mmHg 97%
    05:00 +8°C° 0.7 mm 0 mps 595 mmHg 96%
    06:00 +8°C° 0.7 mm 0 mps 595 mmHg 95%
    07:00 +9°C° 0.7 mm 0 mps 595 mmHg 93%
    08:00 +10°C° 1.2 mm 1 mps 595 mmHg 91%
    09:00 +11°C° 1.2 mm 1 mps 595 mmHg 88%
    10:00 +11°C° 1.2 mm 1 mps 594 mmHg 86%
    11:00 +11°C° 2.1 mm 1 mps 594 mmHg 88%
    12:00 +10°C° 2.1 mm 1 mps 594 mmHg 90%
    13:00 +9°C° 2.1 mm 2 mps 593 mmHg 92%
    14:00 +8°C° 3.7 mm 2 mps 593 mmHg 93%
    15:00 +7°C° 3.7 mm 2 mps 593 mmHg 95%
    16:00 +6°C° 3.7 mm 2 mps 592 mmHg 97%
    17:00 +6°C° 1.2 mm 2 mps 593 mmHg 96%
    18:00 +5°C° 1.2 mm 2 mps 593 mmHg 96%
    19:00 +5°C° 1.2 mm 2 mps 593 mmHg 96%
    20:00 +4°C° 0.2 mm 2 mps 593 mmHg 95%
    21:00 +4°C° 0.2 mm 2 mps 592 mmHg 95%
    22:00 +3°C° 0.2 mm 2 mps 592 mmHg 94%
    23:00 +2°C° 0 mm 2 mps 592 mmHg 94%

    Day after tomorrow, 25 July, Tuesday

    Time Temperature Precipitation Wind Pressure Humidity
    00:00 +2°C° 0 mm 2 mps 591 mmHg 94%
    01:00 +1°C° 0 mm 2 mps 591 mmHg 94%
    02:00 +1°C° 0 mm 2 mps 591 mmHg 94%
    03:00 -1°C° 0 mm 2 mps 590 mmHg 94%
    04:00 -1°C° 0 mm 2 mps 590 mmHg 94%
    05:00 +1°C° 0 mm 2 mps 590 mmHg 91%
    06:00 +2°C° 0 mm 2 mps 591 mmHg 89%
    07:00 +3°C° 0 mm 2 mps 591 mmHg 86%
    08:00 +5°C° 0 mm 2 mps 592 mmHg 77%
    09:00 +7°C° 0 mm 2 mps 592 mmHg 68%
    10:00 +9°C° 0 mm 2 mps 593 mmHg 59%
    11:00 +9°C° 0.2 mm 2 mps 593 mmHg 59%
    12:00 +10°C° 0.2 mm 2 mps 593 mmHg 58%
    13:00 +10°C° 0.2 mm 2 mps 593 mmHg 58%
    14:00 +10°C° 0.6 mm 2 mps 593 mmHg 61%
    15:00 +9°C° 0.6 mm 2 mps 593 mmHg 65%
    16:00 +9°C° 0.6 mm 3 mps 592 mmHg 69%
    17:00 +8°C° 1.2 mm 2 mps 592 mmHg 76%
    18:00 +7°C° 1.2 mm 2 mps 591 mmHg 83%
    19:00 +5°C° 1.2 mm 2 mps 591 mmHg 91%
    20:00 +5°C° 0.6 mm 2 mps 591 mmHg 92%
    21:00 +5°C° 0.6 mm 1 mps 591 mmHg 94%
    22:00 +4°C° 0.6 mm 1 mps 591 mmHg 96%
    23:00 +4°C° 0.3 mm 1 mps 591 mmHg 96%

    26 July, Wednesday

    Time Temperature Precipitation Wind Pressure Humidity
    00:00 +4°C° 0.3 mm 1 mps 591 mmHg 96%
    01:00 +3°C° 0.3 mm 1 mps 591 mmHg 96%
    02:00 +3°C° 0.2 mm 1 mps 591 mmHg 96%
    03:00 +3°C° 0.2 mm 1 mps 591 mmHg 96%
    04:00 +3°C° 0.2 mm 1 mps 590 mmHg 96%
    05:00 +3°C° 0.2 mm 2 mps 591 mmHg 95%
    06:00 +3°C° 0.2 mm 2 mps 591 mmHg 95%
    07:00 +3°C° 0.2 mm 2 mps 591 mmHg 94%
    08:00 +5°C° 0.1 mm 2 mps 592 mmHg 88%
    09:00 +6°C° 0.1 mm 2 mps 593 mmHg 82%
    10:00 +7°C° 0.1 mm 2 mps 593 mmHg 76%
    11:00 +8°C° 0.1 mm 2 mps 593 mmHg 74%
    12:00 +8°C° 0.1 mm 2 mps 594 mmHg 72%
    13:00 +9°C° 0.1 mm 2 mps 594 mmHg 70%
    14:00 +9°C° 0.3 mm 2 mps 594 mmHg 72%
    15:00 +8°C° 0.3 mm 2 mps 594 mmHg 74%
    16:00 +8°C° 0.3 mm 3 mps 594 mmHg 76%
    17:00 +7°C° 0.8 mm 2 mps 594 mmHg 81%
    18:00 +7°C° 0.8 mm 2 mps 594 mmHg 86%
    19:00 +6°C° 0.8 mm 2 mps 594 mmHg 91%
    20:00 +5°C° 0.9 mm 2 mps 594 mmHg 92%
    21:00 +5°C° 0.9 mm 2 mps 595 mmHg 94%
    22:00 +4°C° 0.9 mm 2 mps 595 mmHg 95%
    23:00 +4°C° 0.6 mm 2 mps 595 mmHg 95%

    27 July, Thursday

    Time Temperature Precipitation Wind Pressure Humidity
    00:00 +4°C° 0.6 mm 2 mps 595 mmHg 95%
    01:00 +4°C° 0.6 mm 2 mps 595 mmHg 95%
    02:00 +4°C° 0.1 mm 2 mps 595 mmHg 95%
    03:00 +4°C° 0.1 mm 2 mps 595 mmHg 95%
    04:00 +3°C° 0.1 mm 2 mps 595 mmHg 95%
    05:00 +4°C° 0 mm 2 mps 596 mmHg 93%
    06:00 +6°C° 0 mm 1 mps 596 mmHg 91%
    07:00 +7°C° 0 mm 1 mps 597 mmHg 89%
    08:00 +9°C° 0 mm 1 mps 598 mmHg 80%
    09:00 +11°C° 0 mm 1 mps 599 mmHg 71%
    10:00 +13°C° 0 mm 2 mps 599 mmHg 62%
    11:00 +14°C° 0 mm 2 mps 599 mmHg 60%
    12:00 +14°C° 0 mm 2 mps 599 mmHg 58%
    13:00 +15°C° 0 mm 2 mps 599 mmHg 57%
    14:00 +15°C° 0 mm 2 mps 599 mmHg 57%
    15:00 +15°C° 0 mm 2 mps 599 mmHg 58%
    16:00 +15°C° 0 mm 2 mps 599 mmHg 59%
    17:00 +14°C° 0 mm 2 mps 599 mmHg 65%
    18:00 +13°C° 0 mm 2 mps 599 mmHg 72%
    19:00 +12°C° 0 mm 1 mps 598 mmHg 78%
    20:00 +10°C° 0 mm 1 mps 598 mmHg 83%
    21:00 +8°C° 0 mm 1 mps 597 mmHg 88%
    22:00 +7°C° 0 mm 1 mps 597 mmHg 94%
    23:00 +6°C° 0 mm 1 mps 597 mmHg 94%

    28 July, Friday

    Time Temperature Precipitation Wind Pressure Humidity
    00:00 +6°C° 0 mm 1 mps 597 mmHg 94%
    01:00 +6°C° 0 mm 1 mps 597 mmHg 93%
    02:00 +6°C° 0 mm 1 mps 597 mmHg 93%
    03:00 +6°C° 0 mm 1 mps 597 mmHg 93%
    04:00 +6°C° 0 mm 1 mps 597 mmHg 93%
    05:00 +8°C° 0 mm 1 mps 598 mmHg 87%
    06:00 +9°C° 0 mm 1 mps 599 mmHg 81%
    07:00 +11°C° 0 mm 1 mps 600 mmHg 76%
    08:00 +13°C° 0 mm 1 mps 600 mmHg 66%
    09:00 +15°C° 0 mm 1 mps 601 mmHg 57%
    10:00 +18°C° 0 mm 1 mps 602 mmHg 48%
    11:00 +19°C° 0 mm 1 mps 602 mmHg 46%
    12:00 +20°C° 0 mm 1 mps 602 mmHg 44%
    13:00 +20°C° 0 mm 2 mps 603 mmHg 42%
    14:00 +19°C° 0 mm 2 mps 602 mmHg 45%
    15:00 +19°C° 0 mm 2 mps 602 mmHg 48%
    16:00 +19°C° 0 mm 2 mps 602 mmHg 51%
    17:00 +17°C° 0.3 mm 2 mps 602 mmHg 61%
    18:00 +16°C° 0.3 mm 2 mps 601 mmHg 71%
    19:00 +14°C° 0.3 mm 1 mps 601 mmHg 81%
    20:00 +13°C° 0.3 mm 1 mps 601 mmHg 86%
    21:00 +11°C° 0.3 mm 1 mps 600 mmHg 91%
    22:00 +9°C° 0.3 mm 1 mps 600 mmHg 95%
    23:00 +9°C° 0.1 mm 1 mps 600 mmHg 96%
    Show more